Location: Glendo
(42.5037°N, 105.0248°W)
Time: 07:31:46
(UTC+00:00)

Envisat - Pass Details

Date: 31 January 2022
Orbit: 764 x 765 km, 98.2° (Epoch: 22 May)

Event Time Altitude Azimuth Distance (km) Brightness Sun altitude
Rises 11:13:09 0° 21° (NNE) 3,239 6.6 -33.6°
Reaches altitude 10° 11:15:40 10° 31° (NNE) 2,309 5.9 -33.2°
Maximum altitude 11:20:18 35° 97° (E) 1,215 4.4 -32.3°
Drops below altitude 10° 11:24:56 10° 163° (SSE) 2,295 5.6 -31.5°
Sets 11:27:24 0° 172° (S) 3,216 6.3 -31.0°
